Flag for Cook Islands Weather past 2 weeks in Rarotonga, Cook Islands

Now
79 °F

Scattered clouds.


Feels Like: 81 °F
Forecast: 68 / 78 °F
Wind: 12 mph from North

Location: Rarotonga

Current Time: Sep 21, 2014 at 12:11:17 PM

Latest Report: Sep 21, 2014 at 11:00 AM


Visibility: N/A

Pressure: 29.92 "Hg

Humidity: 74%

Dew point: 70 °F

Location of RarotongaLocation

Historic Weather in Rarotonga — Graph

°F

Rarotonga temperature yesterday

Maximum temperature yesterday: 77 °F (at 2:00 PM)
Minimum temperature yesterday: 64 °F (at 1:00 AM)
Average temperature yesterday: 72 °F

Past Weeks' High & Low Weather Summary

 TemperatureHumidityPressure
High82 °F (Sep 7, 1:00 PM)100% (Sep 7, 10:00 PM)30.45 "Hg (Sep 7, 10:00 PM)
Low63 °F (Sep 15, 4:00 AM)54% (Sep 9, 12:00 PM)29.80 "Hg (Sep 8, 4:00 AM)
Average72 °F78%29.97 "Hg
* Reported Sep 6 10:00 AM — Sep 21 10:00 AM, Rarotonga, Weather by CustomWeather, © 2014

Note: Actual official high and low records may vary slightly from our data, if they occured in-between our weather recording intervals... More about our weather records

Advertising

Rarotonga weather history for previous 24 hours

 ConditionsComfort  
Time TempWeatherWind HumidityBarometerVisibility
10:00 AM
Sep 21
79 °FPartly sunny.8 mph74%29.92 "HgN/A
9:00 AM75 °FScattered clouds.5 mph78%29.95 "HgN/A
8:00 AM72 °FPartly sunny.3 mph88%29.92 "HgN/A
7:00 AM68 °FScattered clouds.5 mph88%29.92 "HgN/A
6:00 AM68 °FPassing clouds.5 mph94%29.89 "HgN/A
5:00 AM68 °FPassing clouds.3 mph88%29.89 "HgN/A
4:00 AM66 °FPassing clouds.3 mph88%29.89 "HgN/A
3:00 AM68 °FPassing clouds.3 mph94%29.89 "HgN/A
2:00 AM66 °FPassing clouds.2 mph94%29.92 "HgN/A
1:00 AM68 °FPassing clouds.5 mph88%29.92 "HgN/A
12:00 AM68 °FPassing clouds.5 mph88%29.95 "HgN/A
11:00 PM
Sep 20
70 °FPassing clouds.5 mph83%29.95 "HgN/A
10:00 PM70 °FPassing clouds.3 mph83%29.98 "HgN/A
9:00 PM70 °FPassing clouds.5 mph83%29.98 "HgN/A
8:00 PM70 °FPassing clouds.5 mph83%29.95 "HgN/A
7:00 PM70 °FPassing clouds.5 mph83%29.95 "HgN/A
6:00 PM73 °FPassing clouds.3 mph74%29.92 "HgN/A
5:00 PM75 °FPassing clouds.7 mph74%29.92 "HgN/A
4:00 PM75 °FPassing clouds.7 mph69%30.45 "HgN/A
3:00 PM77 °FPassing clouds.8 mph69%29.92 "HgN/A
2:00 PM77 °FPassing clouds.8 mph69%29.95 "HgN/A
1:00 PM75 °FScattered clouds.10 mph69%29.95 "HgN/A
12:00 PM75 °FPassing clouds.8 mph65%29.98 "HgN/A
Weather by CustomWeather, © 2014

See weather overviewHow to use our weather pages